• Em Portugal
  • Lista de países
  • Para 7 dias
  • Temperatura da água
  • Mapas de satélite
  • Mapa do tempo
  • Widgets de tempo
  • user-avatar
    Iniciar Sessão

    Previsão horária em Orange Walk

    Hoje, 20 Novembro, Segunda-feira

    Tempo Temperatura Precipitação Vento Pressão Humidade
    00:00 +22°C° 0 mm 1 m/s 760 mmHg 97%
    01:00 +22°C° 0,1 mm 1 m/s 759 mmHg 97%
    02:00 +22°C° 0,1 mm 1 m/s 759 mmHg 98%
    03:00 +21°C° 0,1 mm 1 m/s 759 mmHg 98%
    04:00 +21°C° 0,1 mm 1 m/s 759 mmHg 98%
    05:00 +21°C° 0,1 mm 1 m/s 759 mmHg 98%
    06:00 +20°C° 0 mm 1 m/s 760 mmHg 98%
    07:00 +22°C° 0 mm 1 m/s 760 mmHg 93%
    08:00 +24°C° 0 mm 2 m/s 760 mmHg 87%
    09:00 +26°C° 0 mm 2 m/s 760 mmHg 82%
    10:00 +28°C° 0 mm 2 m/s 760 mmHg 72%
    11:00 +29°C° 0 mm 2 m/s 760 mmHg 62%
    12:00 +31°C° 0 mm 2 m/s 759 mmHg 52%
    13:00 +31°C° 0 mm 1 m/s 759 mmHg 51%
    14:00 +31°C° 0 mm 1 m/s 758 mmHg 51%
    15:00 +31°C° 0 mm 1 m/s 757 mmHg 51%
    16:00 +29°C° 0 mm 1 m/s 757 mmHg 58%
    17:00 +27°C° 0 mm 1 m/s 757 mmHg 66%
    18:00 +25°C° 0 mm 1 m/s 757 mmHg 74%
    19:00 +25°C° 0,2 mm 1 m/s 758 mmHg 77%
    20:00 +24°C° 0,2 mm 1 m/s 758 mmHg 80%
    21:00 +24°C° 0,2 mm 1 m/s 759 mmHg 83%
    22:00 +23°C° 0,1 mm 1 m/s 758 mmHg 86%
    23:00 +23°C° 0,1 mm 1 m/s 758 mmHg 88%

    Amanhã, 21 Novembro, Terça-feira

    Tempo Temperatura Precipitação Vento Pressão Humidade
    00:00 +23°C° 0,1 mm 1 m/s 758 mmHg 91%
    01:00 +22°C° 0 mm 1 m/s 758 mmHg 92%
    02:00 +22°C° 0 mm 1 m/s 758 mmHg 93%
    03:00 +22°C° 0 mm 1 m/s 757 mmHg 94%
    04:00 +21°C° 0 mm 1 m/s 757 mmHg 94%
    05:00 +21°C° 0 mm 1 m/s 758 mmHg 95%
    06:00 +21°C° 0 mm 1 m/s 758 mmHg 95%
    07:00 +23°C° 0 mm 1 m/s 758 mmHg 85%
    08:00 +26°C° 0 mm 1 m/s 758 mmHg 76%
    09:00 +28°C° 0 mm 1 m/s 759 mmHg 66%
    10:00 +30°C° 0 mm 1 m/s 758 mmHg 61%
    11:00 +29°C° 0 mm 0 m/s 758 mmHg 55%
    12:00 +31°C° 0 mm 0 m/s 757 mmHg 49%
    13:00 +32°C° 0 mm 1 m/s 757 mmHg 53%
    14:00 +31°C° 0 mm 1 m/s 756 mmHg 56%
    15:00 +31°C° 0 mm 1 m/s 756 mmHg 59%
    16:00 +29°C° 0,1 mm 1 m/s 756 mmHg 68%
    17:00 +27°C° 0,1 mm 1 m/s 756 mmHg 77%
    18:00 +25°C° 0,1 mm 1 m/s 756 mmHg 85%
    19:00 +24°C° 0 mm 1 m/s 757 mmHg 87%
    20:00 +24°C° 0 mm 1 m/s 757 mmHg 90%
    21:00 +23°C° 0 mm 1 m/s 758 mmHg 92%
    22:00 +23°C° 0 mm 1 m/s 758 mmHg 93%
    23:00 +21°C° 0 mm 0 m/s 758 mmHg 94%

    Depois de amanhã, 22 Novembro, Quarta-feira

    Tempo Temperatura Precipitação Vento Pressão Humidade
    00:00 +21°C° 0 mm 0 m/s 757 mmHg 95%
    01:00 +21°C° 0 mm 0 m/s 757 mmHg 95%
    02:00 +20°C° 0 mm 0 m/s 757 mmHg 96%
    03:00 +20°C° 0 mm 0 m/s 757 mmHg 96%
    04:00 +20°C° 0 mm 0 m/s 757 mmHg 97%
    05:00 +20°C° 0 mm 0 m/s 757 mmHg 97%
    06:00 +22°C° 0 mm 1 m/s 757 mmHg 98%
    07:00 +22°C° 0 mm 0 m/s 758 mmHg 88%
    08:00 +24°C° 0 mm 0 m/s 759 mmHg 79%
    09:00 +27°C° 0 mm 0 m/s 759 mmHg 70%
    10:00 +28°C° 0 mm 0 m/s 759 mmHg 63%
    11:00 +30°C° 0 mm 0 m/s 758 mmHg 56%
    12:00 +32°C° 0 mm 0 m/s 758 mmHg 50%
    13:00 +31°C° 0 mm 0 m/s 757 mmHg 53%
    14:00 +30°C° 0 mm 0 m/s 757 mmHg 56%
    15:00 +31°C° 0 mm 1 m/s 756 mmHg 59%
    16:00 +29°C° 0,7 mm 1 m/s 757 mmHg 70%
    17:00 +26°C° 0,7 mm 1 m/s 757 mmHg 81%
    18:00 +24°C° 0,7 mm 1 m/s 758 mmHg 92%
    19:00 +23°C° 0,7 mm 1 m/s 758 mmHg 93%
    20:00 +23°C° 0,7 mm 1 m/s 759 mmHg 95%
    21:00 +22°C° 0,7 mm 1 m/s 760 mmHg 97%
    22:00 +22°C° 0 mm 1 m/s 759 mmHg 97%
    23:00 +22°C° 0 mm 1 m/s 759 mmHg 97%

    23 Novembro, Quinta-feira

    Tempo Temperatura Precipitação Vento Pressão Humidade
    00:00 +21°C° 0 mm 1 m/s 759 mmHg 98%
    01:00 +21°C° 0 mm 1 m/s 759 mmHg 98%
    02:00 +21°C° 0 mm 1 m/s 758 mmHg 98%
    03:00 +21°C° 0 mm 1 m/s 758 mmHg 98%
    04:00 +20°C° 0 mm 2 m/s 758 mmHg 98%
    05:00 +19°C° 0 mm 2 m/s 759 mmHg 98%
    06:00 +19°C° 0 mm 2 m/s 759 mmHg 99%
    07:00 +21°C° 0 mm 2 m/s 759 mmHg 95%
    08:00 +23°C° 0 mm 2 m/s 760 mmHg 91%
    09:00 +24°C° 0 mm 2 m/s 760 mmHg 88%
    10:00 +25°C° 0 mm 3 m/s 760 mmHg 81%
    11:00 +26°C° 0 mm 3 m/s 759 mmHg 75%
    12:00 +27°C° 0 mm 3 m/s 759 mmHg 68%
    13:00 +28°C° 0 mm 3 m/s 758 mmHg 65%
    14:00 +29°C° 0 mm 3 m/s 757 mmHg 61%
    15:00 +29°C° 0 mm 3 m/s 757 mmHg 57%
    16:00 +28°C° 0 mm 2 m/s 757 mmHg 66%
    17:00 +26°C° 0 mm 2 m/s 757 mmHg 74%
    18:00 +24°C° 0 mm 2 m/s 758 mmHg 82%
    19:00 +23°C° 0 mm 2 m/s 758 mmHg 85%
    20:00 +21°C° 0 mm 2 m/s 759 mmHg 88%
    21:00 +21°C° 0 mm 2 m/s 760 mmHg 91%
    22:00 +20°C° 0 mm 2 m/s 760 mmHg 93%
    23:00 +20°C° 0 mm 2 m/s 760 mmHg 95%

    24 Novembro, Sexta-feira

    Tempo Temperatura Precipitação Vento Pressão Humidade
    00:00 +19°C° 0 mm 2 m/s 759 mmHg 97%
    01:00 +19°C° 0 mm 2 m/s 759 mmHg 98%
    02:00 +18°C° 0 mm 2 m/s 759 mmHg 98%
    03:00 +18°C° 0 mm 2 m/s 759 mmHg 98%
    04:00 +18°C° 0 mm 2 m/s 759 mmHg 98%
    05:00 +17°C° 0 mm 2 m/s 760 mmHg 98%
    06:00 +18°C° 0 mm 1 m/s 760 mmHg 98%
    07:00 +19°C° 0 mm 2 m/s 761 mmHg 89%
    08:00 +21°C° 0 mm 2 m/s 761 mmHg 80%
    09:00 +24°C° 0 mm 2 m/s 761 mmHg 70%
    10:00 +26°C° 0 mm 2 m/s 761 mmHg 63%
    11:00 +27°C° 0 mm 2 m/s 760 mmHg 56%
    12:00 +29°C° 0 mm 2 m/s 760 mmHg 49%
    13:00 +28°C° 0 mm 2 m/s 759 mmHg 52%
    14:00 +28°C° 0 mm 1 m/s 758 mmHg 55%
    15:00 +28°C° 0 mm 1 m/s 758 mmHg 58%
    16:00 +26°C° 0 mm 1 m/s 758 mmHg 63%
    17:00 +25°C° 0 mm 1 m/s 758 mmHg 68%
    18:00 +21°C° 0 mm 0 m/s 759 mmHg 73%
    19:00 +23°C° 0 mm 1 m/s 759 mmHg 75%
    20:00 +22°C° 0 mm 1 m/s 760 mmHg 77%
    21:00 +22°C° 0 mm 1 m/s 760 mmHg 79%
    22:00 +22°C° 0 mm 1 m/s 760 mmHg 82%
    23:00 +21°C° 0 mm 1 m/s 760 mmHg 84%

    25 Novembro, Sábado

    Tempo Temperatura Precipitação Vento Pressão Humidade
    00:00 +21°C° 0 mm 1 m/s 760 mmHg 86%
    01:00 +20°C° 0 mm 1 m/s 760 mmHg 89%
    02:00 +20°C° 0 mm 1 m/s 760 mmHg 91%
    03:00 +19°C° 0 mm 1 m/s 759 mmHg 93%
    04:00 +19°C° 0 mm 1 m/s 760 mmHg 92%
    05:00 +19°C° 0 mm 1 m/s 760 mmHg 91%
    06:00 +19°C° 0 mm 1 m/s 760 mmHg 90%
    07:00 +21°C° 0 mm 1 m/s 761 mmHg 81%
    08:00 +23°C° 0 mm 1 m/s 761 mmHg 72%
    09:00 +25°C° 0 mm 1 m/s 762 mmHg 63%
    10:00 +27°C° 0 mm 1 m/s 761 mmHg 59%
    11:00 +28°C° 0 mm 1 m/s 761 mmHg 55%
    12:00 +29°C° 0 mm 1 m/s 760 mmHg 51%
    13:00 +29°C° 0 mm 2 m/s 760 mmHg 52%
    14:00 +28°C° 0 mm 2 m/s 759 mmHg 53%
    15:00 +28°C° 0 mm 2 m/s 759 mmHg 54%
    16:00 +26°C° 0 mm 2 m/s 759 mmHg 61%
    17:00 +25°C° 0 mm 2 m/s 759 mmHg 68%
    18:00 +23°C° 0 mm 1 m/s 760 mmHg 75%
    19:00 +22°C° 0 mm 1 m/s 760 mmHg 78%
    20:00 +21°C° 0 mm 1 m/s 761 mmHg 81%
    21:00 +20°C° 0 mm 1 m/s 761 mmHg 83%
    22:00 +20°C° 0 mm 1 m/s 761 mmHg 85%
    23:00 +19°C° 0 mm 1 m/s 761 mmHg 87%
    Mostrar mais